Regional Weather Roundup
Issued by NWS

Home | Current Version | Previous Version | Graphics & Text | Print | Product List | Glossary On
Versions: 1 2 3 4 5 6 7 8 9 10 11 12 13 14 15 16 17 18 19 20 21 22 23 24 25 26 27 28 29 30 31 32 33 34 35 36 37 38 39 40 41 42 43 44 45 46 47 48 49 50
736
ASUS45 KTFX 191610
RWRMT
MONTANA REGIONAL WEATHER ROUNDUP
NATIONAL WEATHER SERVICE GREAT FALLS MT
1000 AM MDT THU OCT 19 2017

NOTE: "FAIR" INDICATES FEW OR NO CLOUDS BELOW 12000 FEET WITH NO
SIGNIFICANT WEATHER AND/OR OBSTRUCTIONS TO VISIBILITY.

MTZ001>007-043-191700-
WEST OF THE DIVIDE

CITY           SKY/WX    TMP DP  RH WIND       PRES   REMARKS
KALISPELL      CLOUDY    56  35  45 W5        29.64S
MISSOULA       PTSUNNY   42  37  82 CALM      29.75S
BUTTE          CLOUDY    53  25  33 N3        29.86S
MULLAN PASS    CLOUDY    46  22  38 SW9G18    29.74S
ANACONDA         N/A     61  18  18 S20       29.80S
DEER LODGE       N/A     57  21  24 SW6       29.80F
EUREKA           N/A     57  36  44 MISG      29.60F
HAMILTON         N/A     57  25  28 S14       29.73S
LIBBY            N/A     61  34  36 W3        29.60S
$$

MTZ008-052>055-191700-
SOUTHWEST MONTANA

CITY           SKY/WX    TMP DP  RH WIND       PRES   REMARKS
BOZEMAN        SUNNY     50  36  58 CALM      29.83S
DILLON         SUNNY     52  23  32 SW5       29.88F
W YELLOWSTONE  SUNNY     34  25  69 CALM      30.05F
ENNIS          SUNNY     59  18  20 S22G31    29.93S
$$

MTZ009-010-012-014-046-048-049-054-191700-
EAST SLOPES AND CENTRAL MONTANA

CITY           SKY/WX    TMP DP  RH WIND       PRES   REMARKS
CUT BANK       CLOUDY    58  23  26 SE9       29.61R
GREAT FALLS    CLOUDY    65  20  17 S18G26    29.69R
MALMSTROM AFB  CLOUDY    65  22  20 SW22      29.67R
HELENA         CLOUDY    65  21  18 S13G21    29.74S
CHOTEAU          N/A     63  21  20 S15       29.66R
$$

MTZ011-013-016-021-045-047-050-051-191700-
NORTH CENTRAL MONTANA

CITY           SKY/WX    TMP DP  RH WIND       PRES   REMARKS
HAVRE          CLOUDY    63  28  26 SW21      29.61R
LEWISTOWN      CLOUDY    69  19  15 SW21G29   29.76S
N BAR RANCH      N/A     66  18  15 SW18G26   29.80S
$$

MTZ017>020-022>027-061-062-191700-
NORTHEAST MONTANA

CITY           SKY/WX    TMP DP  RH WIND       PRES   REMARKS
GLASGOW        CLOUDY    57  40  52 E7        29.68S
JORDAN           N/A     67  30  25 W5        29.72F
SIDNEY         CLOUDY    52  36  54 S12       29.74S
WOLF POINT     CLOUDY    52  33  48 SE3       29.70F
MALTA          SUNNY     61  32  33 CALM      29.66S
PLENTYWOOD       N/A     48  30  49 CALM      29.70R
POPLAR           N/A     55  34  44 CALM      29.71S
$$

MTZ028>42-056>058-191700-
SOUTHCENTRAL AND SOUTHEAST MONTANA

CITY           SKY/WX    TMP DP  RH WIND       PRES   REMARKS
BAKER          CLOUDY    68  28  22 SW9       29.82S
BILLINGS       MOSUNNY   61  27  27 W12       29.80F
LIVINGSTON     SUNNY     63  20  19 SW22G33   29.83F
MILES CITY     CLOUDY    53  33  46 SE10      29.78S
FORSYTH          N/A     50  37  62 CALM      29.76F
LAUREL           N/A     66  25  20 SW16      29.80F
$$

REGIONAL REPORTS...DAKOTAS

CITY           SKY/WX    TMP DP  RH WIND       PRES   REMARKS
WILLISTON      CLOUDY    49  34  56 S8        29.74R
MINOT          CLOUDY    56  32  40 S12       29.71S
DICKINSON      SUNNY     65  32  29 SW6       29.78R
BEACH            N/A     64  27  24 SW12      29.81S
CROSBY           N/A     52  32  46 S16       29.69S
TIOGA            N/A     54  30  40 SW12      29.74S
WATFORD CITY     N/A     57  34  41 SW8       29.74S
BISMARCK       SUNNY     55  37  50 S8        29.81S
GRAND FORKS    MOSUNNY   54  32  43 S15       29.83F
FARGO          SUNNY     57  33  40 S14       29.87F
BUFFALO SD       N/A     61  30  31 SW5       29.78S
RAPID CITY     SUNNY     69  24  18 NW5       29.87F
$$

REGIONAL REPORTS...WYOMING/IDAHO/WASHINGTON

CITY           SKY/WX    TMP DP  RH WIND       PRES   REMARKS
GILLETTE       CLOUDY    60  25  26 S10       29.89F
SHERIDAN       SUNNY     58  35  42 N5        29.84F
BUFFALO WY     SUNNY     69  22  16 S7        29.91S
CODY           SUNNY     60  22  23 S12       29.94F
YELLOWSTONE LA   N/A     42  28  57 CALM      30.12S
IDAHO FALLS    SUNNY     42  32  67 N6        29.99F
SALMON         CLOUDY    43  29  57 CALM      29.88F
BOISE          SUNNY     55  27  34 SE13      29.84S
SPOKANE        CLOUDY    55  41  59 W10       29.63S
$$

REGIONAL REPORTS...ALBERTA

CITY           SKY/WX    TMP DP  RH WIND       PRES   REMARKS
EDMONTON       SUNNY     43  32  65 S5        29.37R
CALGARY        PTSUNNY   46  37  71 VRB2      29.43S
LETHBRIDGE     MOSUNNY   57  34  41 S5        29.53R
MEDICINE HAT   CLOUDY    59  30  33 SW17G23   29.50R
$$

REGIONAL REPORTS...SASKATCHEWAN

CITY           SKY/WX    TMP DP  RH WIND       PRES   REMARKS
SWIFT CURRENT  SUNNY     61  28  29 SW25G33   29.52R
REGINA         CLOUDY    54  32  43 SE9       29.58S
SASKATOON      PTSUNNY   52  36  54 S13       29.43F
$$




USA.gov is the U.S. government's official web portal to all federal, state and local government web resources and services.